EW4423 Weather Reports


Display with metric or nautical units.
time (UTC)temp
F
wind
direction
speed
MPH
gust
MPH
rain 1hr
in
rain 24hr
in
rain mn
in
humidity
%
barometer
mb
20260503001533 76 9 0.0 4.0 0.00 0.00 0.00 45 1018.2
20260503000042 76 347 1.0 6.0 0.00 0.00 0.00 46 1018.1
20260502234525 76 43 3.0 10.0 0.00 0.00 0.00 44 1018.2
20260502233020 76 31 3.0 10.0 0.00 0.00 0.00 44 1018.3
20260502231518 76 9 4.0 10.0 0.00 0.00 0.00 44 1018.2
20260502230017 76 336 5.0 14.0 0.00 0.00 0.00 44 1018.4
20260502224517 77 306 1.0 11.0 0.00 0.00 0.00 46 1018.5
20260502223024 76 269 3.0 13.0 0.00 0.00 0.00 46 1018.4
20260502221505 76 309 4.0 10.0 0.00 0.00 0.00 46 1018.4
20260502220001 76 333 6.0 12.0 0.00 0.00 0.00 45 1018.5
20260502214558 76 39 5.0 14.0 0.00 0.00 0.00 46 1018.6
20260502213056 76 114 0.0 13.0 0.00 0.00 0.00 47 1018.7
20260502211555 76 284 6.0 15.0 0.00 0.00 0.00 47 1018.9
20260502210108 76 266 6.0 14.0 0.00 0.00 0.00 47 1018.9
20260502204551 76 256 3.0 13.0 0.00 0.00 0.00 49 1019.3
20260502203050 75 355 6.0 12.0 0.00 0.00 0.00 48 1019.3
20260502201551 75 47 9.0 15.0 0.00 0.00 0.00 48 1019.4
20260502200105 75 68 5.0 12.0 0.00 0.00 0.00 48 1019.6
20260502194546 75 39 7.0 11.0 0.00 0.00 0.00 49 1019.9
20260502193047 75 310 6.0 16.0 0.00 0.00 0.00 47 1020.0
20260502191555 74 63 4.0 12.0 0.00 0.00 0.00 50 1020.2
20260502190048 74 351 8.0 18.0 0.00 0.00 0.00 51 1020.3
20260502184541 74 350 5.0 13.0 0.00 0.00 0.00 53 1020.5
20260502183038 73 283 2.0 8.0 0.00 0.00 0.00 54 1020.5
20260502181537 73 42 3.0 12.0 0.00 0.00 0.00 56 1020.8
20260502163021 68 55 10.0 14.0 0.00 0.00 0.00 65 1021.4
20260502161515 68 34 2.0 8.0 0.00 0.00 0.00 68 1021.3
20260502151511 64 35 5.0 9.0 0.00 0.00 0.00 78 1021.3
20260502140106 58 49 0.0 4.0 0.00 0.00 0.00 88 1020.8
20260502123033 50 14 1.0 4.0 0.00 0.00 0.00 90 1019.6
20260502121528 49 342 1.0 3.0 0.00 0.00 0.00 89 1019.8
20260502114523 50 344 1.0 3.0 0.00 0.00 0.00 88 1019.2
20260502113027 50 348 1.0 3.0 0.00 0.00 0.00 88 1018.7
20260502111517 50 340 1.0 3.0 0.00 0.00 0.00 88 1018.6
20260502110016 50 283 1.0 3.0 0.00 0.00 0.00 88 1018.4
20260502104515 50 281 1.0 3.0 0.00 0.00 0.00 88 1018.3
20260502103014 51 282 1.0 3.0 0.00 0.00 0.00 88 1018.3
20260502101512 51 278 1.0 4.0 0.00 0.00 0.00 87 1018.4
20260502091505 52 336 0.0 1.0 0.00 0.00 0.00 87 1017.8
20260502070107 54 343 0.0 3.0 0.00 0.00 0.00 87 1018.0
20260502064605 54 348 1.0 4.0 0.00 0.00 0.00 87 1018.2
20260502063054 54 325 1.0 4.0 0.00 0.00 0.00 87 1018.1
20260502061550 55 331 1.0 4.0 0.00 0.00 0.00 87 1018.1
20260502060049 55 360 0.0 3.0 0.00 0.00 0.00 87 1017.9
20260502054554 55 360 0.0 4.0 0.00 0.00 0.00 87 1018.0
20260502053047 55 5 2.0 4.0 0.00 0.00 0.00 87 1018.0
20260502051546 55 355 1.0 3.0 0.00 0.00 0.00 87 1018.0
20260502050043 55 348 1.0 3.0 0.00 0.00 0.00 87 1018.1
20260502044542 55 348 0.0 3.0 0.00 0.00 0.00 87 1018.1
20260502043045 55 348 0.0 2.0 0.00 0.00 0.00 86 1018.0
20260502041553 55 348 1.0 4.0 0.00 0.00 0.00 87 1017.9
20260502040042 55 349 2.0 4.0 0.00 0.00 0.00 86 1018.0
20260502034539 55 355 2.0 5.0 0.00 0.00 0.00 86 1017.9
20260502033039 55 309 0.0 4.0 0.00 0.00 0.00 85 1017.7
20260502031535 56 5 0.0 2.0 0.00 0.00 0.00 85 1017.5
20260502030037 56 360 0.0 3.0 0.00 0.00 0.00 85 1017.5
20260502024534 56 355 1.0 3.0 0.00 0.00 0.00 85 1017.3
20260502023044 56 319 2.0 4.0 0.00 0.00 0.00 85 1017.4
20260502021534 57 94 0.0 2.0 0.00 0.00 0.00 84 1017.1
20260502020033 57 94 1.0 3.0 0.00 0.00 0.00 82 1017.0
20260502014535 57 94 0.0 2.0 0.00 0.00 0.00 82 1017.1
20260502013032 58 93 0.0 0.0 0.00 0.00 0.00 80 1016.9
20260502011531 58 94 0.0 3.0 0.00 0.00 0.00 80 1016.4
20260502010035 59 94 0.0 2.0 0.00 0.00 0.00 79 1016.1
20260502004532 59 94 0.0 2.0 0.00 0.00 0.00 79 1016.2
20260502003029 59 93 0.0 6.0 0.00 0.00 0.00 78 1016.0